"Pseudo-MPEC" for C1A0XZ1

Created 2020 Sep 16 17:07:09 UT using Find_Orb

Click here for an explanation of pseudo-MPECs

 
 Astrometry: 
     C1A0XZ1  C2020 09 15.25808 00 32 55.40 -05 56 38.6    ~9FCb       VNEOCP703
     C1A0XZ1  C2020 09 15.26363 00 32 54.90 -05 56 41.5    ~9FCb 18.8 GVNEOCP703
     C1A0XZ1  C2020 09 15.26918 00 32 54.39 -05 56 44.3    ~9FCb 18.3 GVNEOCP703

Station data:
(703) Catalina Sky Survey  (N32.417006 W110.732640)  US/Arizona.  Observers
   T. A. Pruyne, B. M. Africano, E. J. Christensen, G. A. Farneth, D. C.
   Fuls, A. R. Gibbs, A. D. Grauer, H. Gröller, J. A. Johnson, R. A.
   Kowalski, S. M. Larson, G. J. Leonard, D. Rankin, R. L. Seaman, F. C.
   Shelly. 0.68 m Schmidt + 10K CCD.

Orbital elements:  C1A0XZ1
   Perihelion 2021 Apr 26.229552 +/- 263 TT =  5:30:33 (JD 2459330.729552)
Epoch 2020 Sep 15.0 TT = JDT 2459107.5   Earth MOID: 0.2673   Ma: 0.0166
M 221.95329427 +/- 100              (J2000 ecliptic)          AutoNEOCP
n   0.61840694 +/- 0.298            Peri.   83.65042 +/- 53
a   1.36443591 +/- 0.439            Node    56.80380 +/- 46
e   0.0858148 +/- 0.263             Incl.    3.16776 +/- 60
P   1.59/582.13d           H 19.1   G  0.15   U 11.9  SR
q 1.24734706 +/- 0.96    Q 1.48152476 +/- 25.5
From 3 observations 2020 Sept. 15 (16.0 min); mean residual 0".03
Residuals in arcseconds: 
200915 703  .02-  .02+    200915 703  .05+  .03-    200915 703  .02-  .02+    

Ephemerides (geocentric):
Date (UTC) HH   RA              Dec         delta   r     elong  mag " sig PA
---- -- -- --  -------------   -----------  ------ ------ -----  --- ---- ---
2020 09 16 17  00 30 49.048   -06 08 43.49  .45807 1.4543 166.3 18.8  667 177
2020 09 16 18  00 30 45.364   -06 09 04.60  .45799 1.4543 166.3 18.8  713 178
2020 09 16 19  00 30 41.677   -06 09 25.70  .45791 1.4543 166.4 18.8  763 178
2020 09 16 20  00 30 37.986   -06 09 46.81  .45784 1.4542 166.4 18.8  819 179
2020 09 16 21  00 30 34.291   -06 10 07.90  .45776 1.4542 166.5 18.8  882 179
2020 09 16 22  00 30 30.593   -06 10 29.00  .45768 1.4542 166.5 18.8  954   0
2020 09 16 23  00 30 26.891   -06 10 50.09  .45760 1.4541 166.6 18.8 1037   1
2020 09 17 00  00 30 23.185   -06 11 11.18  .45752 1.4541 166.6 18.8 1133   1
2020 09 17 01  00 30 19.476   -06 11 32.26  .45745 1.4541 166.7 18.8 1248   2
2020 09 17 02  00 30 15.763   -06 11 53.33  .45737 1.4540 166.7 18.8 1386   3
2020 09 17 03  00 30 12.046   -06 12 14.41  .45729 1.4540 166.7 18.8 1556   4
2020 09 17 04  00 30 08.326   -06 12 35.47  .45722 1.4540 166.8 18.8 1772   4
2020 09 17 05  00 30 04.602   -06 12 56.54  .45714 1.4539 166.8 18.8 2055   5
2020 09 17 06  00 30 00.875   -06 13 17.59  .45706 1.4539 166.9 18.8 2444   6
2020 09 17 07  00 29 57.144   -06 13 38.65  .45699 1.4539 166.9 18.8 3011   6
2020 09 17 08  00 29 53.409   -06 13 59.69  .45691 1.4538 167.0 18.8 3917   7
2020 09 17 09  00 29 49.671   -06 14 20.74  .45684 1.4538 167.0 18.8 5591   8
2020 09 17 10  00 29 45.929   -06 14 41.77  .45676 1.4538 167.0 18.8 9659   8
2020 09 17 11  00 29 42.184   -06 15 02.80  .45669 1.4537 167.1 18.8 443'   4
2020 09 17 12  00 29 38.435   -06 15 23.83  .45661 1.4537 167.1 18.8 912' 178
2020 09 17 13  00 29 34.683   -06 15 44.85  .45654 1.4537 167.2 18.8  17d 176
2020 09 17 14  00 29 30.927   -06 16 05.86  .45647 1.4536 167.2 18.8  18d 176
2020 09 17 15  00 29 27.168   -06 16 26.87  .45639 1.4536 167.3 18.8  18d   4
2020 09 17 16  00 29 23.406   -06 16 47.87  .45632 1.4536 167.3 18.8  17d   4
2020 09 17 17  00 29 19.640   -06 17 08.87  .45625 1.4536 167.3 18.8  17d   4
2020 09 17 18  00 29 15.870   -06 17 29.86  .45617 1.4535 167.4 18.8  17d   4
2020 09 17 19  00 29 12.097   -06 17 50.84  .45610 1.4535 167.4 18.8  17d   4
2020 09 17 20  00 29 08.321   -06 18 11.82  .45603 1.4535 167.5 18.8  17d   4
2020 09 17 21  00 29 04.541   -06 18 32.79  .45596 1.4534 167.5 18.8  17d   4
2020 09 17 22  00 29 00.758   -06 18 53.76  .45589 1.4534 167.6 18.8  17d   4
2020 09 17 23  00 28 56.972   -06 19 14.72  .45582 1.4534 167.6 18.8  17d   4
2020 09 18 00  00 28 53.182   -06 19 35.67  .45575 1.4533 167.6 18.8  17d   5
2020 09 18 01  00 28 49.389   -06 19 56.61  .45568 1.4533 167.7 18.8  17d   5
2020 09 18 02  00 28 45.592   -06 20 17.55  .45561 1.4533 167.7 18.8  17d   5
2020 09 18 03  00 28 41.793   -06 20 38.48  .45554 1.4532 167.8 18.8  17d   5
2020 09 18 04  00 28 37.990   -06 20 59.40  .45547 1.4532 167.8 18.8  17d   5
2020 09 18 05  00 28 34.183   -06 21 20.32  .45540 1.4532 167.8 18.8  17d   5
2020 09 18 06  00 28 30.374   -06 21 41.22  .45533 1.4531 167.9 18.8  17d   5
2020 09 18 07  00 28 26.561   -06 22 02.12  .45526 1.4531 167.9 18.8  17d   5
2020 09 18 08  00 28 22.745   -06 22 23.02  .45519 1.4531 168.0 18.8  17d   5
2020 09 18 09  00 28 18.925   -06 22 43.90  .45512 1.4530 168.0 18.8  17d   5
2020 09 18 10  00 28 15.103   -06 23 04.78  .45506 1.4530 168.0 18.8  17d   5
2020 09 18 11  00 28 11.277   -06 23 25.65  .45499 1.4530 168.1 18.8  17d   5
2020 09 18 12  00 28 07.448   -06 23 46.51  .45492 1.4529 168.1 18.8  17d   5
2020 09 18 13  00 28 03.616   -06 24 07.36  .45486 1.4529 168.2 18.8  17d   5
2020 09 18 14  00 27 59.781   -06 24 28.21  .45479 1.4529 168.2 18.7  17d   5
2020 09 18 15  00 27 55.943   -06 24 49.04  .45472 1.4528 168.2 18.7  17d   5
2020 09 18 16  00 27 52.101   -06 25 09.87  .45466 1.4528 168.3 18.7  17d   5